Calgary Springbank, Alberta

7:01 AM MDT on August 24, 2016 (GMT -0600)
Springbank

Weather History for CYBW - December, 2010

Change the Weather History Date:

Thursday, December 9, 2010

  Actual Average Record
Temperature  
Mean Temperature 14 °F -  
Max Temperature 26 °F 26 °F 46 °F (2014)
Min Temperature 3 °F 7 °F -13 °F (2012)
Degree Days  
Heating Degree Days 50    
Moisture  
Dew Point 8 °F    
Average Humidity 86    
Maximum Humidity 100    
Minimum Humidity 53    
Precipitation  
Precipitation 0.00 in - - ()
Sea Level Pressure  
Sea Level Pressure 29.86 in    
Wind  
Wind Speed 6 mph ()    
Max Wind Speed 17 mph    
Max Gust Speed -    
Visibility 6.2 miles    
Events Snow    
Averages and records for this station are not official NWS values.
T = Trace of Precipitation, MM = Missing Value Source: Averaged Metar Reports

Daily Weather History Graph

Daily Weather History Graph

Search for Another Location

Airport or City:

Trip Planner

Search our weather history database for the weather conditions in past years. The results will help you decide how hot, cold, wet, or windy it might be!

Date:

Astronomy

Dec. 09, 2010 Rise Set
Actual Time 8:29 AM MST 4:30 PM MST
Civil Twilight 7:49 AM MST 5:09 PM MST
Nautical Twilight 7:07 AM MST 5:52 PM MST
Astronomical Twilight 6:27 AM MST 6:32 PM MST
Moon 11:17 AM MST (12/9) 8:55 PM MST (12/9)
Length of Visible Light 9h 20m
Length of Day
8h 01m
Waxing Crescent, 17% of the Moon is Illuminated
Dec 9
Waxing Crescent
Dec 13
First Quarter
Dec 21
Full
Dec 27
Last Quarter
Jan 4
New

Hourly Weather History & Observations

Time (MST) Temp. Windchill Dew Point Humidity Pressure Visibility Wind Dir Wind Speed Gust Speed Precip Events Conditions
5:00 AM 28 °F - 18 °F 53% 29.78 in 15 mi WSW 12.7 mph - -   Scattered Clouds
5:00 AM 28.4 °F 16.2 °F 17.6 °F 64% 29.78 in 15.0 mi WSW 17.3 mph - N/A   Mostly Cloudy
6:00 AM 23.0 °F 18.4 °F 14.0 °F 68% 29.79 in 15.0 mi SE 3.5 mph - N/A   Mostly Cloudy
7:00 AM 17.6 °F 5.0 °F 10.4 °F 73% 29.79 in 15.0 mi East 11.5 mph - N/A   Mostly Cloudy
8:00 AM 14.0 °F 2.9 °F 10.4 °F 86% 29.85 in 30.0 mi ESE 8.1 mph - N/A   Mostly Cloudy
9:00 AM 12.2 °F 4.3 °F 8.6 °F 85% 29.86 in 30.0 mi South 4.6 mph - N/A   Mostly Cloudy
10:00 AM 10.4 °F 4.0 °F 10.4 °F 100% 29.87 in 10.0 mi South 3.5 mph - N/A   Mostly Cloudy
10:36 AM - - - N/A% - 5.0 mi ESE 4.6 mph - N/A   Overcast
11:00 AM 9 °F - 8 °F 90% 29.91 in 5 mi South 2.3 mph - -   Mist
11:00 AM 8.6 °F 2.0 °F 6.8 °F 92% 29.91 in 4.0 mi East 3.5 mph - N/A   Mostly Cloudy
12:00 PM 10.4 °F 0.8 °F 10.4 °F 100% 29.89 in 3.0 mi ESE 5.8 mph - N/A   Overcast
12:22 PM - - - N/A% - 2.2 mi East 5.8 mph - N/A Snow Light Snow Grains
12:48 PM - - - N/A% - 3.0 mi East 5.8 mph - N/A Snow Light Snow Grains
1:00 PM 12.2 °F 1.7 °F 10.4 °F 92% 29.89 in 2.0 mi East 6.9 mph - N/A Snow Light Snow Grains
1:40 PM - - - N/A% - 3.0 mi ESE 5.8 mph - N/A   Mostly Cloudy
2:00 PM 12.2 °F 4.3 °F 8.6 °F 85% 29.89 in 3.0 mi East 4.6 mph - N/A   Mostly Cloudy
3:00 PM 12.2 °F 4.3 °F 8.6 °F 85% 29.88 in 4.0 mi East 4.6 mph - N/A   Mostly Cloudy
4:00 PM 10.4 °F -0.4 °F 6.8 °F 85% 29.88 in 6.0 mi East 6.9 mph - N/A   Mostly Cloudy
5:00 PM 8 °F - 5 °F 83% 29.88 in 6 mi East 5.8 mph - -   Mist
5:00 PM 6.8 °F -5.9 °F 5.0 °F 92% 29.88 in 6.0 mi East 8.1 mph - N/A   Mostly Cloudy
6:00 PM 6.8 °F -2.0 °F 5.0 °F 92% 29.89 in 7.0 mi SE 4.6 mph - N/A Snow Light Snow
6:23 PM - - - N/A% - 3.0 mi South 2.3 mph - N/A Snow Light Snow Grains
7:00 PM 5.0 °F - 3.2 °F 92% 29.88 in 3.0 mi South 2.3 mph - N/A Snow Light Snow
8:00 PM 3.2 °F - 3.2 °F 100% 29.92 in 2.0 mi South 2.3 mph - N/A Snow Light Snow
9:00 PM 5.0 °F - 3.2 °F 92% 29.91 in 6.0 mi ENE 2.3 mph - N/A Snow Light Snow
10:00 PM 5.0 °F -4.1 °F 3.2 °F 92% 29.66 in 8.0 mi ENE 4.6 mph - N/A   Overcast
11:00 PM 5.0 °F -5.6 °F 3.2 °F 92% 29.99 in 3.0 mi North 5.8 mph - N/A Snow Light Snow